Location: Bois de la Silve
(44.4667°N, 6.7833°E)
Time: 04:42:30
(UTC+00:00)

SeaSat 1 - Pass Details

Date: 14 July 2020
Orbit: 744 x 747 km, 108.0° (Epoch: 06 August)

Event Time Altitude Azimuth Distance (km) Brightness Sun altitude
Rises 00:37:05 0° 37° (NE) 3,200 6.9 -22.6°
Reaches altitude 10° 00:39:40 10° 50° (NE) 2,271 5.7 -22.5°
Maximum altitude 00:43:52 28° 108° (ESE) 1,395 3.8 -22.2°
Enters shadow 00:45:01 25° 131° (SE) 1,476 3.7 -22.2°
